Location: Ocean City
(38.3360°N, 75.0850°W)
Time: 21:36:22
(UTC-04:00)

Max Valier Satellite - Pass Details

Date: 21 May 2019
Orbit: 492 x 507 km, 97.4° (Epoch: 15 June)

Event Time Altitude Azimuth Distance (km) Brightness Sun altitude
Exits shadow 22:51:14 17° 250° (WSW) 1,300 ? -24.4°
Maximum altitude 22:51:58 18° 266° (W) 1,261 ? -24.4°
Drops below altitude 10° 22:54:36 10° 312° (NW) 1,709 ? -24.7°
Sets 22:57:11 0° 331° (NNW) 2,602 ? -25.0°
